Theta_e
318 314 314 317 317 312 316 317 318 319 321 319 318 319 318 318 320 320 338 341 343 341 340 338 337 336 333 332 333 332 332 333 335 336 337 336 337 337 336 335 335 338 337 336 336 337 336 333 332
312 314 317 312 317 318 318 317 318 319 319 317 318 319 320 324 339 340 340 342 342 339 339 338 337 336 333 332 333 334 333 332 335 336 336 335 334 333 331 331 333 335 335 337 336 336 334 328 329
312 318 316 314 314 318 319 318 317 318 319 318 318 318 319 325 338 340 337 339 343 341 339 339 338 337 334 332 333 334 332 334 333 335 335 333 331 329 331 331 333 333 334 336 336 335 327 320 324
317 314 312 313 316 315 319 318 315 317 317 317 318 320 321 332 337 336 337 338 341 340 340 341 341 339 337 334 332 334 333 329 328 336 334 332 331 331 330 332 332 333 333 333 333 330 321 324 327
315 307 312 312 312 313 315 315 316 317 318 319 319 320 320 331 334 334 336 338 337 339 340 342 341 340 338 337 335 335 336 334 331 334 333 328 334 331 331 332 332 332 332 331 330 327 328 328 329
313 307 310 312 313 314 315 316 317 318 320 318 318 319 327 334 334 335 333 333 335 336 338 339 341 340 339 339 338 337 336 335 335 332 326 323 333 333 332 332 331 331 331 329 326 327 329 329 330
312 310 312 313 314 316 317 315 318 318 320 320 321 322 332 332 333 333 333 334 335 336 338 339 340 340 339 340 341 341 338 336 336 332 325 327 330 327 330 330 331 330 330 325 325 327 329 329 325
312 310 315 312 314 314 315 316 317 318 318 319 319 321 334 331 334 334 334 335 335 335 336 338 339 338 339 340 342 342 341 337 335 333 327 328 326 326 325 328 331 330 328 322 322 324 325 322 321
310 310 311 314 313 314 315 316 317 317 317 318 318 318 318 332 335 335 337 337 337 337 337 336 335 334 332 332 336 340 342 340 335 333 328 328 327 324 328 332 331 329 325 320 322 323 323 319 320
311 309 312 313 313 314 316 316 315 316 318 318 318 319 333 335 334 334 334 334 336 336 334 332 332 332 331 330 329 331 336 337 336 333 328 329 325 327 324 333 330 327 321 321 322 322 320 319 321
312 313 312 313 313 313 314 313 313 315 314 314 316 317 334 334 334 333 333 334 335 335 335 334 333 333 332 330 331 329 327 327 333 332 329 330 328 327 329 331 330 327 318 319 322 321 319 319 320
316 315 313 313 313 313 314 314 313 313 314 315 313 314 333 334 333 332 332 334 335 336 336 335 335 334 332 331 331 326 325 325 329 329 331 330 329 328 332 331 329 325 315 316 319 319 319 320 319
316 316 316 315 314 313 313 313 314 314 313 314 314 315 327 333 332 332 331 331 333 336 336 336 334 332 331 328 326 324 324 325 324 328 326 329 329 329 329 329 328 321 314 315 315 318 319 319 319
316 316 316 315 315 315 316 316 314 315 315 315 316 316 315 326 330 329 330 331 336 336 337 334 333 331 330 327 327 325 326 326 324 325 325 326 325 329 329 327 326 318 311 313 313 316 319 319 320
312 312 310 314 316 315 314 316 314 313 313 314 316 316 315 314 324 328 331 332 335 336 334 333 331 330 331 328 330 326 326 327 324 324 325 325 328 330 327 326 324 316 314 311 309 313 318 320 320
310 310 313 316 315 316 316 318 317 315 316 317 318 318 316 314 322 329 332 332 333 334 333 331 330 331 331 331 330 328 327 327 327 325 327 326 326 327 328 325 320 314 312 309 309 313 318 320 320
308 312 313 313 311 312 314 315 316 316 317 317 317 317 316 315 320 328 331 333 331 333 331 329 330 331 330 331 331 330 330 328 326 327 329 329 329 329 327 323 318 314 312 310 311 313 316 317 320
307 308 309 309 311 313 314 315 315 315 316 316 317 317 315 314 320 326 331 331 331 331 330 329 330 330 330 330 331 331 329 328 329 327 329 329 329 329 326 322 318 316 315 312 317 319 321 320 321
306 305 304 305 307 310 312 314 313 314 315 316 317 318 314 315 318 328 329 329 329 330 329 329 330 329 329 329 331 330 327 328 329 330 329 328 330 329 327 322 319 318 318 313 320 322 324 322 320
304 304 304 305 306 309 311 311 311 314 316 316 317 318 316 316 327 328 329 328 328 328 328 328 327 328 328 329 329 330 330 327 328 328 329 330 330 329 328 324 321 319 320 317 320 322 322 319 320
305 304 304 307 309 309 312 313 313 315 317 317 317 316 316 316 328 329 329 327 327 327 328 327 327 328 327 327 326 326 328 329 328 328 329 329 328 328 328 327 324 323 321 322 320 323 322 319 318
313 311 310 312 312 314 311 313 312 312 314 316 316 316 316 317 328 329 328 326 326 325 326 326 326 326 325 325 325 325 325 326 327 328 327 328 329 328 328 327 326 326 325 323 322 324 321 319 316
312 311 312 313 312 311 312 312 312 313 314 315 315 315 315 314 327 330 328 327 325 325 324 325 326 325 324 325 324 324 323 323 324 325 328 327 328 327 327 327 327 326 326 325 323 322 320 318 317
309 311 314 314 312 314 313 312 314 312 314 315 316 316 317 315 326 329 328 326 324 324 324 325 325 325 324 324 323 323 324 323 323 324 325 326 327 325 324 325 325 326 325 324 322 321 320 319 318
309 312 314 316 315 315 313 314 314 313 314 316 319 319 321 321 323 329 327 326 323 323 323 324 324 324 323 323 323 324 323 324 324 325 326 325 326 325 323 324 324 325 325 325 324 322 320 320 320
307 308 312 318 317 315 314 316 318 316 317 322 324 323 322 320 324 329 328 326 324 323 323 324 324 324 323 323 323 324 324 324 324 326 325 325 324 324 322 322 322 323 324 324 323 321 321 320 320
309 311 310 313 315 317 316 315 314 314 324 324 324 324 322 328 328 329 328 325 324 323 323 324 324 324 323 322 324 324 324 324 323 324 323 323 324 323 322 321 321 321 321 320 320 319 319 320 319
311 308 310 312 317 315 317 317 317 320 323 324 325 324 322 324 329 329 328 326 325 324 323 323 323 323 323 322 323 323 324 324 323 322 322 322 321 321 321 320 320 320 320 317 317 318 320 319 318
314 316 316 309 316 316 319 317 322 323 322 322 324 323 321 321 321 328 327 326 325 324 323 322 323 322 322 322 322 322 323 323 323 322 322 322 322 321 320 320 319 318 318 319 318 318 319 319 317
313 313 315 318 314 316 316 315 314 322 323 322 321 319 320 319 317 325 326 326 324 323 323 322 322 322 322 321 321 321 323 323 323 323 321 321 321 321 320 319 320 320 319 319 320 320 319 318 317
Wind_Speed
8 4 3 3 4 4 4 6 3 2 2 3 5 6 6 4 3 4 11 13 16 16 16 15 13 16 21 21 21 22 22 21 22 27 29 32 34 34 33 31 29 28 26 24 24 24 25 27 28
6 2 2 2 4 2 5 5 5 7 8 8 6 4 3 3 2 6 12 17 18 18 17 16 16 18 21 22 22 22 23 21 22 23 27 29 29 29 30 30 29 28 26 24 25 24 25 27 28
2 2 3 3 3 5 5 3 4 5 8 6 5 2 6 8 2 13 9 21 19 18 16 16 16 17 21 23 23 22 23 24 22 24 28 27 28 28 28 28 27 27 26 24 23 24 26 29 31
4 5 3 1 9 8 5 6 8 6 3 2 6 4 3 16 19 16 25 23 22 18 16 16 17 18 20 23 24 26 27 27 24 26 27 25 29 30 29 26 25 25 27 25 24 26 35 37 36
2 3 1 3 8 7 7 6 14 9 5 5 5 4 6 6 16 25 27 24 22 20 17 17 17 19 20 23 25 26 27 27 29 34 31 23 19 29 29 27 24 24 25 27 27 34 37 38 36
2 3 2 4 8 7 9 10 9 6 5 5 4 6 2 11 28 30 26 25 21 20 20 19 18 18 20 22 24 26 27 30 34 36 33 35 26 28 28 26 24 24 25 27 36 37 35 34 32
5 4 4 5 7 13 9 7 5 5 3 4 2 4 0 4 28 31 28 24 22 20 19 19 19 18 20 21 22 26 29 28 34 36 36 39 31 15 24 28 26 26 26 30 37 37 34 28 23
5 4 3 6 4 13 3 9 5 3 7 1 6 5 5 11 27 28 24 22 21 20 18 19 18 18 19 22 23 25 28 30 32 39 42 32 21 25 26 30 32 30 27 34 37 36 34 26 22
5 1 6 10 8 12 9 6 3 5 5 3 6 7 8 26 26 23 21 20 20 20 20 19 18 17 15 17 23 27 28 32 31 39 38 32 38 38 26 32 36 30 29 36 38 36 32 26 20
5 5 9 5 7 12 16 5 14 4 6 6 5 3 12 30 26 20 16 17 23 25 24 22 19 16 14 14 16 21 25 28 29 41 43 36 43 35 35 33 35 31 32 37 38 36 30 24 28
5 10 5 9 10 10 17 8 7 6 6 9 7 5 10 13 18 14 17 21 31 30 25 24 20 16 15 14 15 17 22 22 26 40 48 41 41 34 33 37 34 33 34 37 37 36 31 29 29
8 12 7 7 11 8 14 15 8 9 11 9 10 6 10 12 14 14 17 25 25 28 27 23 20 17 12 14 15 16 15 20 29 32 43 49 43 43 32 34 35 37 37 38 39 36 32 29 22
13 13 14 12 9 7 10 9 12 9 12 12 9 7 13 16 17 23 27 25 24 28 30 24 20 16 13 14 17 18 18 18 27 41 36 51 43 38 36 32 37 38 38 40 40 35 32 28 21
7 9 9 5 5 6 11 13 4 5 11 11 9 12 11 14 20 18 16 22 29 28 29 25 20 16 15 16 18 18 14 21 26 34 42 44 40 39 37 33 38 40 40 41 40 35 33 27 17
4 7 8 3 3 5 8 17 7 9 8 9 13 19 12 11 15 19 31 30 34 32 29 25 19 15 15 17 16 18 17 15 30 39 44 43 44 38 37 39 40 42 42 41 38 34 30 25 17
5 6 7 4 3 5 2 24 8 6 9 13 15 18 19 12 18 27 31 30 34 32 31 24 19 17 14 15 20 18 16 12 13 41 42 44 46 41 42 39 40 42 41 39 38 35 32 24 20
3 11 10 9 8 7 8 21 4 9 9 13 15 17 19 17 11 25 28 35 34 34 32 25 21 20 15 12 17 21 18 16 23 24 40 44 43 44 40 41 40 43 41 41 38 36 33 27 22
7 7 5 8 4 3 8 16 8 7 7 10 17 15 16 10 13 21 26 29 34 35 30 25 23 21 18 13 14 19 20 23 24 31 33 39 42 41 40 40 40 42 39 41 40 36 30 30 27
4 5 12 8 14 4 11 12 12 8 11 15 19 15 12 16 3 14 24 30 33 33 30 27 26 22 22 20 18 21 22 26 25 29 38 45 43 44 41 40 43 44 39 45 43 34 30 31 28
10 13 17 15 13 9 13 16 18 7 11 16 21 19 16 8 7 14 21 26 31 33 31 29 26 24 22 22 20 17 20 27 32 30 35 38 45 47 44 40 41 45 37 43 42 37 31 27 32
14 12 12 16 7 6 5 16 10 10 9 14 19 16 17 10 12 13 15 22 26 29 33 31 28 26 23 20 19 13 17 17 26 28 31 36 40 44 42 44 40 42 42 39 42 38 36 26 34
19 6 13 10 6 12 7 14 15 14 16 12 15 15 15 7 15 17 16 16 27 28 32 29 30 27 23 21 21 20 17 13 16 27 32 35 42 44 43 42 42 39 41 39 41 41 38 31 27
18 8 12 12 7 1 4 3 19 6 18 18 14 16 17 9 15 20 22 24 26 32 31 30 29 27 24 23 22 21 20 21 22 24 24 37 37 40 40 42 43 40 37 39 37 37 39 32 29
4 5 3 2 2 8 4 5 21 6 10 14 17 19 18 9 13 19 15 21 22 27 30 28 28 27 25 24 22 22 20 21 22 25 26 22 41 37 37 36 40 39 37 40 38 37 34 30 21
6 4 3 3 2 13 5 8 17 9 15 12 17 18 20 20 11 16 17 17 22 26 28 30 28 25 27 24 23 23 21 22 25 26 25 34 26 35 36 37 38 38 41 39 38 33 28 27 28
8 9 7 5 8 12 4 6 5 4 7 10 12 19 19 18 15 21 21 18 22 27 28 28 28 26 28 25 24 21 17 18 16 19 23 27 28 33 38 37 33 39 39 40 36 34 26 23 24
5 5 11 6 3 5 5 14 11 19 7 12 13 18 24 7 11 20 18 17 24 27 29 29 29 27 28 26 26 24 17 15 15 17 21 26 29 32 40 40 34 38 37 36 34 28 25 23 24
3 4 1 1 4 12 5 6 8 5 11 14 14 20 26 11 2 10 16 17 25 28 27 29 29 27 28 26 26 26 24 22 19 20 22 27 27 29 35 38 41 36 33 29 26 26 25 26 29
6 5 5 2 4 7 5 5 5 6 4 11 17 19 15 15 11 7 9 16 22 24 27 29 29 27 26 26 26 26 27 25 22 23 24 27 28 28 31 32 33 32 31 30 30 30 30 31 32
1 2 4 2 6 4 5 11 7 5 6 10 12 21 17 13 11 6 7 6 19 24 25 28 28 27 28 27 27 26 28 26 25 22 23 25 27 28 31 31 28 29 27 30 32 32 28 30 32
Wind_Direction
226 254 335 49 46 62 263 262 262 232 112 229 150 123 162 162 152 224 159 162 169 162 156 159 176 181 174 169 168 165 162 158 149 147 146 147 148 150 150 149 148 142 137 136 139 137 137 139 142
190 151 46 86 97 55 269 254 221 199 186 191 134 110 128 119 126 151 147 173 172 165 158 163 177 184 181 178 177 174 169 162 156 152 152 152 148 147 147 148 148 144 139 142 143 142 141 144 146
185 151 83 125 148 194 206 253 275 254 186 164 134 129 150 148 33 156 179 170 172 169 166 170 176 189 190 187 185 179 174 164 162 164 159 153 151 151 149 147 148 146 143 146 147 147 144 143 138
144 29 10 125 241 257 231 295 273 254 273 211 148 144 101 164 160 183 162 166 175 172 177 182 183 191 196 195 194 188 183 174 168 172 158 155 158 154 150 149 151 150 147 148 150 149 142 138 134
92 76 37 285 267 268 281 247 255 251 180 185 157 199 154 148 172 166 164 169 175 175 185 193 195 195 200 202 202 195 190 188 175 165 157 130 185 158 150 151 155 157 155 154 152 149 146 142 141
36 99 104 236 260 278 277 294 254 216 195 189 161 142 250 162 149 163 168 169 179 177 182 190 196 201 205 209 208 205 201 191 176 176 180 167 203 162 149 150 158 164 163 162 154 153 150 147 150
132 97 219 242 284 298 287 298 220 208 154 266 186 88 31 247 169 167 170 168 176 180 178 181 191 201 207 211 213 213 211 201 190 180 168 170 178 177 163 158 170 173 174 166 158 157 150 156 154
135 121 217 239 164 272 256 342 7 173 231 179 154 167 186 224 178 167 166 163 176 186 192 192 194 201 206 214 212 217 221 213 198 184 177 181 189 187 176 168 177 182 180 167 161 157 154 155 145
135 136 208 238 184 251 305 320 336 276 280 242 209 177 210 179 169 155 149 163 177 191 201 206 206 206 211 217 221 220 219 217 210 197 189 183 174 175 180 181 179 183 180 169 164 159 158 151 145
165 196 226 221 227 271 290 282 294 269 290 284 307 357 127 148 162 169 177 185 194 202 202 205 202 198 208 217 221 217 227 221 212 192 180 182 180 173 177 189 181 183 181 175 170 163 159 149 149
213 234 244 266 254 254 279 281 261 253 251 229 239 250 162 167 179 187 198 194 203 210 204 199 199 200 210 233 230 222 210 205 196 195 187 190 188 177 184 183 182 180 183 177 174 168 164 150 148
253 262 244 255 261 266 267 275 257 232 238 235 216 218 165 179 186 199 209 208 210 208 205 199 196 198 221 228 229 221 199 194 196 181 184 176 181 179 185 176 181 181 180 178 177 175 163 159 154
249 261 266 258 257 268 274 267 262 265 264 263 263 251 183 186 198 207 213 211 211 204 202 191 190 198 216 214 194 193 202 212 213 206 192 172 172 173 179 173 180 181 181 179 178 176 167 167 153
275 268 259 269 298 244 272 281 272 269 271 284 287 274 258 190 200 202 189 189 191 192 188 185 188 194 202 200 199 205 212 227 201 197 201 190 170 179 181 176 183 184 181 180 179 171 172 168 162
258 301 308 250 230 272 293 281 241 257 306 306 308 291 261 224 178 196 192 178 179 185 181 180 181 184 197 199 204 209 209 210 207 185 189 182 173 173 174 179 182 184 183 178 172 173 173 167 167
344 303 285 167 347 262 289 276 302 297 337 321 308 314 274 249 193 198 190 176 181 177 176 172 181 182 193 207 212 211 215 209 177 171 181 183 180 183 181 179 181 182 180 174 172 174 174 171 175
264 260 259 291 217 250 241 279 269 313 312 306 313 314 299 261 203 195 187 179 179 174 171 169 177 174 178 192 203 209 209 184 165 175 164 168 171 178 178 179 178 182 178 175 175 177 179 182 180
215 249 234 257 248 269 273 274 277 278 286 294 304 306 308 250 208 193 175 171 167 168 167 171 175 169 169 168 178 197 186 179 166 174 166 166 176 179 180 179 177 181 179 178 177 179 186 186 182
207 269 269 277 276 275 265 263 279 274 294 296 293 293 283 275 256 164 148 151 154 163 167 175 173 170 172 167 167 161 172 178 174 169 172 178 182 180 181 179 179 183 180 182 182 183 188 191 185
246 250 265 278 269 260 267 272 277 268 275 281 276 282 285 287 176 148 149 151 156 164 173 176 179 176 179 181 178 180 166 187 185 183 185 187 187 187 182 179 182 186 182 187 186 185 179 185 183
240 231 255 248 265 247 294 281 282 276 265 273 267 271 281 272 182 156 165 160 157 168 175 180 182 176 180 186 182 184 191 176 190 191 191 191 193 188 184 185 184 185 188 187 189 189 181 176 180
259 218 252 256 273 280 185 278 278 278 271 268 266 277 274 181 192 171 170 167 170 173 177 183 180 180 184 188 184 183 190 196 201 197 200 197 198 193 186 185 186 189 189 190 191 191 183 177 176
253 212 233 250 259 277 245 287 275 342 288 286 280 278 285 266 186 188 182 177 168 166 173 178 180 180 187 189 196 197 210 217 222 225 204 205 197 194 189 187 185 189 190 189 188 186 186 182 179
303 274 227 216 184 253 219 197 276 250 264 282 286 291 292 290 206 200 172 152 154 163 170 171 176 174 183 191 197 202 210 218 214 222 222 216 193 185 190 189 189 187 186 187 182 181 183 187 195
195 102 302 301 275 261 223 239 262 277 274 283 300 296 303 304 201 174 162 161 162 168 172 172 175 173 183 194 201 204 211 208 209 217 208 198 191 179 178 186 188 188 187 185 187 184 186 183 183
220 195 208 221 245 269 244 250 254 264 321 337 332 337 312 282 195 182 172 167 165 171 173 172 172 169 180 189 201 204 197 197 204 193 189 167 172 168 172 173 173 179 186 185 185 183 179 189 196
289 171 211 219 176 279 249 272 306 281 17 17 331 334 345 336 184 172 161 166 166 174 177 173 171 169 178 185 196 199 197 200 188 181 161 166 177 175 178 173 163 165 166 169 176 185 199 207 199
87 269 62 50 209 254 259 271 253 342 5 354 349 331 340 340 203 197 168 168 173 175 172 173 172 169 174 181 194 197 197 192 185 177 165 165 166 167 172 179 180 172 172 177 191 200 201 208 214
352 0 7 298 165 240 263 259 184 111 72 26 338 323 319 328 349 199 227 169 167 169 169 169 173 171 170 177 187 192 197 190 185 182 181 180 178 176 176 175 173 175 184 204 205 210 213 216 224
127 15 328 304 324 315 265 261 273 184 115 83 313 305 313 328 339 258 178 209 166 168 171 170 171 175 175 179 183 191 193 193 190 189 188 187 185 185 186 185 191 192 188 197 205 208 213 224 232